Flag for Colombia Weather past 2 weeks in Bogota, Colombia

Now
52 °F

Passing clouds.


Feels Like: 51 °F
Forecast: 48 / 65 °F
Wind: 3 mph from Northwest

Location: Bogota / Eldorado


UV Index: 3 (Moderate)

Visibility: N/A


Pressure: 30.36 "Hg

Humidity: 88%

Dew point: 48 °F

Location of BogotaLocation

Historic Weather in Bogota

°F

Bogota temperature yesterday

Maximum temperature yesterday: 66 °F (at 5:00 PM)
Minimum temperature yesterday: 50 °F (at 6:00 AM)
Average temperature yesterday: 58 °F

Past Weeks' High & Low Weather Summary

 TemperatureHumidityPressure
High72 °F (Apr 14, 12:00 PM)100% (Apr 13, 4:00 AM)30.41 "Hg (Apr 13, 4:00 AM)
Low43 °F (Apr 13, 4:00 AM)35% (Apr 9, 2:00 PM)30.17 "Hg (Apr 14, 4:00 PM)
Average58 °F74%30.31 "Hg
* Reported Apr 5 11:00 PM — Apr 20 11:00 PM, Bogota, Weather by CustomWeather, © 2014

Note: Actual official high and low records may vary slightly from our data, if they occured in-between our weather recording intervals... More about our weather records

Advertising

Historic Weather Conditions — Data for Previous 24 hours

 ConditionsComfort  
Time TempWeatherWind HumidityBarometerVisibility
11:00 PM
Apr 20
52 °FPassing clouds.No wind88%30.37 "HgN/A
10:00 PM52 °FPassing clouds.5 mph88%30.38 "HgN/A
9:00 PM54 °FPassing clouds.2 mph88%30.37 "HgN/A
8:00 PM55 °FPassing clouds.5 mph77%30.34 "HgN/A
7:00 PM61 °FPassing clouds.7 mph59%30.31 "HgN/A
6:00 PM63 °FScattered clouds.8 mph56%30.28 "HgN/A
5:00 PM66 °FScattered clouds.7 mph46%30.26 "HgN/A
4:00 PM64 °FBroken clouds.7 mph56%30.26 "HgN/A
3:00 PM64 °FPartly sunny.8 mph52%30.28 "HgN/A
2:00 PM64 °FScattered showers. Partly sunny.9 mph56%30.31 "HgN/A
1:00 PM64 °FScattered showers. Partly sunny.9 mph56%30.33 "HgN/A
12:00 PM63 °FScattered showers. Broken clouds.12 mph59%30.36 "HgN/A
11:00 AM64 °FScattered showers. Scattered clouds.12 mph56%30.37 "HgN/A
10:00 AM63 °FBroken clouds.2 mph68%30.37 "HgN/A
9:00 AM59 °FPartly sunny.6 mph77%30.39 "HgN/A
8:00 AM59 °FPartly sunny.7 mph77%30.37 "HgN/A
7:00 AM54 °FScattered showers. Broken clouds.2 mph94%30.36 "HgN/A
6:00 AM50 °FBroken clouds.7 mph94%30.35 "HgN/A
5:00 AM52 °FPartly cloudy.6 mph94%30.33 "HgN/A
4:00 AM52 °FPartly cloudy.7 mph88%30.32 "HgN/A
3:00 AM52 °FPassing clouds.6 mph94%30.31 "HgN/A
2:00 AM54 °FPassing clouds.5 mph94%30.33 "HgN/A
1:00 AM54 °FPassing clouds.6 mph94%30.34 "HgN/A
12:00 AM54 °FPassing clouds.7 mph94%30.35 "HgN/A
Weather by CustomWeather, © 2014

See weather overview